Weather History for Luverne, MN

Change the Weather History Date:

Saturday, September 28, 2013

  Actual Average (KFSD) Record (KFSD)
Temperature  
Mean Temperature 58 °F 56 °F  
Max Temperature 73 °F 68 °F 93 °F (1894)
Min Temperature 42 °F 43 °F 24 °F (1951)
Degree Days  
Heating Degree Days 6 10  
Month to date heating degree days 152  
Since 1 July heating degree days 183  
Cooling Degree Days 0 1  
Month to date cooling degree days 61  
Year to date cooling degree days 686  
Growing Degree Days 8 (Base 50)    
Moisture  
Dew Point 47 °F    
Average Humidity 71    
Maximum Humidity 94    
Minimum Humidity 37    
Precipitation  
Precipitation 0.30 in 0.09 in 1.51 in (1988)
Month to date precipitation 2.61  
Year to date precipitation 22.00  
Snow  
Snow 0.00 in 0.00 in 0.90 in (1985)
Month to date snowfall 0.1  
Since 1 July snowfall 0.1  
Since 1 September snowfall 0.1  
Snow Depth -    
Sea Level Pressure  
Sea Level Pressure 29.84 in    
Wind  
Wind Speed 12 mph (West)    
Max Wind Speed 22 mph    
Max Gust Speed 30 mph    
Visibility 10 miles    
Events Rain    
T = Trace of Precipitation, MM = Missing Value Source: NWS Daily Summary

Daily Weather History Graph

Daily Weather History Graph

Search for Another Location

Airport:

Trip Planner

Search our weather history database for the weather conditions in past years. The results will help you decide how hot, cold, wet, or windy it might be!

Date:

Astronomy

Sep. 28, 2013 Rise Set
Actual Time 7:19 AM CDT 7:10 PM CDT
Civil Twilight 6:50 AM CDT 7:39 PM CDT
Nautical Twilight 6:17 AM CDT 8:12 PM CDT
Astronomical Twilight 5:43 AM CDT 8:46 PM CDT
Moon 12:58 AM CDT (9/28) 3:39 PM CDT (9/28)
Length of Visible Light 12h 48m
Length of Day
11h 51m
Waning Crescent, 36% of the Moon is Illuminated
Sep 28
Waning Crescent
Oct 4
New
Oct 11
First Quarter
Oct 18
Full
Oct 26
Last Quarter

Hourly Weather History & Observations

Time (CDT) Temp. Windchill Dew Point Humidity Pressure Visibility Wind Dir Wind Speed Gust Speed Precip Events Conditions
12:13 AM 73.4 °F - 59.0 °F 61% 29.70 in 10.0 mi SSE 13.8 mph - N/A   Scattered Clouds
12:33 AM 73.4 °F - 59.0 °F 61% 29.71 in 10.0 mi SSE 13.8 mph 19.6 mph N/A   Overcast
12:53 AM 73.4 °F - 59.0 °F 61% 29.69 in 10.0 mi SSE 13.8 mph 20.7 mph N/A   Overcast
1:12 AM 73.4 °F - 59.0 °F 61% 29.69 in 10.0 mi SSE 12.7 mph 20.7 mph N/A   Overcast
1:33 AM 71.6 °F - 59.0 °F 64% 29.68 in 10.0 mi SSE 12.7 mph 20.7 mph N/A   Scattered Clouds
1:53 AM 71.6 °F - 59.0 °F 64% 29.67 in 10.0 mi SSE 13.8 mph 18.4 mph N/A   Scattered Clouds
2:12 AM 71.6 °F - 59.0 °F 64% 29.66 in 10.0 mi SSE 12.7 mph 23.0 mph N/A   Scattered Clouds
2:33 AM 71.6 °F - 59.0 °F 64% 29.68 in 10.0 mi South 12.7 mph 18.4 mph N/A   Mostly Cloudy
2:53 AM 62.6 °F - 55.4 °F 77% 29.70 in 10.0 mi WNW 13.8 mph 19.6 mph N/A   Overcast
3:13 AM 59.0 °F - 55.4 °F 88% 29.69 in 5.0 mi NW 9.2 mph - 0.04 in Rain Rain
3:32 AM 57.2 °F - 53.6 °F 88% 29.68 in 10.0 mi NNW 6.9 mph - 0.04 in Rain Light Rain
3:53 AM 57.2 °F - 53.6 °F 88% 29.69 in 10.0 mi NW 5.8 mph - 0.07 in Rain Light Rain
4:12 AM 57.2 °F - 53.6 °F 88% 29.70 in 10.0 mi Calm Calm - 0.02 in Rain Light Rain
4:33 AM 57.2 °F - 55.4 °F 94% 29.68 in 4.0 mi Calm Calm - 0.17 in Rain Heavy Rain
4:53 AM 59.0 °F - 55.4 °F 88% 29.67 in 7.0 mi Calm Calm - 0.20 in Rain Light Rain
5:12 AM 59.0 °F - 55.4 °F 88% 29.69 in 7.0 mi WSW 10.4 mph - N/A   Overcast
5:33 AM 55.4 °F - 53.6 °F 94% 29.70 in 10.0 mi West 9.2 mph - N/A   Overcast
5:53 AM 55.4 °F - 53.6 °F 94% 29.71 in 10.0 mi West 10.4 mph - N/A   Overcast
6:12 AM 53.6 °F - 51.8 °F 94% 29.71 in 10.0 mi West 11.5 mph - N/A Rain Rain
6:33 AM 53.6 °F - 51.8 °F 94% 29.72 in 7.0 mi West 10.4 mph - 0.01 in Rain Light Rain
6:53 AM 53.6 °F - 51.8 °F 94% 29.72 in 10.0 mi WNW 9.2 mph - 0.01 in Rain Light Rain
7:12 AM 53.6 °F - 51.8 °F 94% 29.71 in 10.0 mi WNW 16.1 mph - 0.02 in   Drizzle
7:33 AM 53.6 °F - 50.0 °F 88% 29.74 in 10.0 mi WNW 11.5 mph - 0.02 in   Overcast
7:53 AM 53.6 °F - 50.0 °F 88% 29.76 in 10.0 mi WNW 16.1 mph 19.6 mph 0.02 in   Overcast
8:12 AM 53.6 °F - 50.0 °F 88% 29.78 in 10.0 mi West 11.5 mph 18.4 mph N/A   Overcast
8:33 AM 53.6 °F - 50.0 °F 88% 29.78 in 2.0 mi WNW 13.8 mph - N/A Rain Rain
8:53 AM 53.6 °F - 50.0 °F 88% 29.79 in 4.0 mi WNW 17.3 mph 24.2 mph N/A   Overcast
9:12 AM 51.8 °F - 50.0 °F 94% 29.80 in 10.0 mi WNW 18.4 mph 25.3 mph N/A   Overcast
9:33 AM 53.6 °F - 50.0 °F 88% 29.81 in 10.0 mi WNW 18.4 mph 25.3 mph N/A   Overcast
9:53 AM 53.6 °F - 50.0 °F 88% 29.82 in 10.0 mi WNW 15.0 mph 27.6 mph N/A   Overcast
10:12 AM 53.6 °F - 50.0 °F 88% 29.84 in 10.0 mi WNW 17.3 mph 26.5 mph N/A   Overcast
10:33 AM 53.6 °F - 48.2 °F 82% 29.84 in 10.0 mi WNW 17.3 mph 29.9 mph N/A   Overcast
10:53 AM 55.4 °F - 48.2 °F 77% 29.85 in 10.0 mi WNW 19.6 mph 25.3 mph N/A   Mostly Cloudy
11:12 AM 53.6 °F - 46.4 °F 77% 29.87 in 10.0 mi WNW 18.4 mph 23.0 mph N/A   Mostly Cloudy
11:33 AM 53.6 °F - 46.4 °F 77% 29.87 in 10.0 mi West 18.4 mph 21.9 mph N/A   Overcast
11:53 AM 53.6 °F - 46.4 °F 77% 29.88 in 10.0 mi West 15.0 mph 23.0 mph N/A   Overcast
12:12 PM 53.6 °F - 44.6 °F 72% 29.89 in 10.0 mi WNW 16.1 mph 25.3 mph N/A   Overcast
12:33 PM 55.4 °F - 44.6 °F 67% 29.89 in 10.0 mi WNW 15.0 mph - N/A   Overcast
12:53 PM 57.2 °F - 44.6 °F 63% 29.90 in 10.0 mi WNW 18.4 mph 23.0 mph N/A   Mostly Cloudy
1:13 PM 59.0 °F - 42.8 °F 55% 29.90 in 10.0 mi West 20.7 mph 27.6 mph N/A   Scattered Clouds
1:33 PM 60.8 °F - 42.8 °F 52% 29.90 in 10.0 mi WNW 17.3 mph - N/A   Scattered Clouds
1:53 PM 59.0 °F - 42.8 °F 55% 29.89 in 10.0 mi WNW 17.3 mph 21.9 mph N/A   Scattered Clouds
2:12 PM 62.6 °F - 41.0 °F 45% 29.89 in 10.0 mi West 21.9 mph 26.5 mph N/A   Scattered Clouds
2:33 PM 62.6 °F - 41.0 °F 45% 29.90 in 10.0 mi WNW 18.4 mph 25.3 mph N/A   Scattered Clouds
2:53 PM 62.6 °F - 39.2 °F 42% 29.90 in 10.0 mi NW 17.3 mph 27.6 mph N/A   Scattered Clouds
3:13 PM 62.6 °F - 37.4 °F 39% 29.90 in 10.0 mi WNW 15.0 mph 24.2 mph N/A   Clear
3:32 PM 64.4 °F - 37.4 °F 37% 29.91 in 10.0 mi WNW 16.1 mph 26.5 mph N/A   Clear
3:53 PM 64.4 °F - 37.4 °F 37% 29.90 in 10.0 mi NW 15.0 mph 26.5 mph N/A   Clear
4:12 PM 64.4 °F - 37.4 °F 37% 29.91 in 10.0 mi West 17.3 mph - N/A   Clear
4:33 PM 64.4 °F - 37.4 °F 37% 29.91 in 10.0 mi West 16.1 mph 20.7 mph N/A   Clear
4:53 PM 64.4 °F - 37.4 °F 37% 29.92 in 10.0 mi West 10.4 mph 18.4 mph N/A   Clear
5:13 PM 64.4 °F - 37.4 °F 37% 29.92 in 10.0 mi WNW 16.1 mph 23.0 mph N/A   Clear
5:33 PM 64.4 °F - 37.4 °F 37% 29.93 in 10.0 mi West 15.0 mph 19.6 mph N/A   Clear
5:53 PM 62.6 °F - 35.6 °F 37% 29.94 in 10.0 mi WNW 15.0 mph - N/A   Clear
6:12 PM 62.6 °F - 37.4 °F 39% 29.95 in 10.0 mi West 12.7 mph - N/A   Clear
6:33 PM 60.8 °F - 37.4 °F 42% 29.96 in 10.0 mi West 10.4 mph - N/A   Clear
6:53 PM 60.8 °F - 37.4 °F 42% 29.97 in 10.0 mi West 6.9 mph - N/A   Clear
7:12 PM 55.4 °F - 39.2 °F 54% 29.97 in 10.0 mi West 6.9 mph - N/A   Clear
7:33 PM 53.6 °F - 41.0 °F 62% 29.97 in 10.0 mi SW 4.6 mph - N/A   Clear
7:53 PM 50.0 °F - 41.0 °F 71% 29.97 in 10.0 mi SSW 4.6 mph - N/A   Clear
8:12 PM 48.2 °F - 41.0 °F 76% 29.97 in 10.0 mi SSW 3.5 mph - N/A   Clear
8:33 PM 46.4 °F 45.2 °F 41.0 °F 81% 29.97 in 10.0 mi South 3.5 mph - N/A   Clear
8:52 PM 46.4 °F 45.2 °F 41.0 °F 81% 29.97 in 10.0 mi South 3.5 mph - N/A   Clear
9:13 PM 46.4 °F 44.3 °F 41.0 °F 81% 29.98 in 10.0 mi South 4.6 mph - N/A   Clear
9:33 PM 46.4 °F 45.2 °F 41.0 °F 81% 29.98 in 10.0 mi South 3.5 mph - N/A   Clear
9:52 PM 46.4 °F 44.3 °F 41.0 °F 81% 29.98 in 10.0 mi South 4.6 mph - N/A   Clear
10:13 PM 44.6 °F 43.1 °F 41.0 °F 87% 29.98 in 10.0 mi South 3.5 mph - N/A   Clear
10:33 PM 46.4 °F 45.2 °F 41.0 °F 81% 29.98 in 10.0 mi SSE 3.5 mph - N/A   Clear
10:52 PM 44.6 °F 42.2 °F 41.0 °F 87% 29.98 in 10.0 mi South 4.6 mph - N/A   Clear
11:13 PM 44.6 °F 43.1 °F 41.0 °F 87% 29.99 in 10.0 mi South 3.5 mph - N/A   Clear
11:33 PM 44.6 °F 41.4 °F 41.0 °F 87% 29.99 in 10.0 mi South 5.8 mph - N/A   Clear
11:52 PM 42.8 °F 41.1 °F 39.2 °F 87% 29.99 in 10.0 mi South 3.5 mph - N/A   Clear